Вернуться в каталог

STARLINK-31596

АктивенСвязьVLEO
NORAD 59336·PAYLOAD·🇺🇸 United States

Запущен Mar 25, 2024 с Cape Canaveral Space Force Station

Loading…

Ближайшие Пролёты (ближайшие 24 часа)

TLE

СвежийSource: CelesTrak SupGP

Эпоха: Sep 14, 2026, 21:38 UTC

1 59336C 24057S   26257.90187500  .00006941  00000+0  25122-3 0  2577
2 59336  42.9996 198.2148 0001312 251.2103 335.3068 15.27599299    18

Отслеживайте STARLINK-31596 в реальном времени с AllMySat

Download on the App Store